TimeMST,TemperatureF,Dew PointF,Humidity,Sea Level PressureIn,VisibilityMPH,Wind Direction,Wind SpeedMPH,Gust SpeedMPH,PrecipitationIn,Events,Conditions,WindDirDegrees,DateUTC
12:15 AM,59.0,53.6,82,30.45,10.0,SE,5.8,-,N/A,,Clear,130,2013-07-27 07:15:00
12:35 AM,59.0,53.6,82,30.45,10.0,SSW,3.5,-,N/A,,Partly Cloudy,200,2013-07-27 07:35:00
12:55 AM,59.0,53.6,82,30.45,10.0,SE,3.5,-,N/A,,Clear,130,2013-07-27 07:55:00
1:15 AM,59.0,53.6,82,30.43,10.0,SSE,5.8,-,N/A,,Mostly Cloudy,150,2013-07-27 08:15:00
1:35 AM,59.0,53.6,82,30.43,10.0,Calm,Calm,-,N/A,,Mostly Cloudy,0,2013-07-27 08:35:00
1:55 AM,59.0,55.4,88,30.44,10.0,Calm,Calm,-,N/A,,Overcast,0,2013-07-27 08:55:00
2:15 AM,59.0,55.4,88,30.44,10.0,Calm,Calm,-,N/A,,Mostly Cloudy,0,2013-07-27 09:15:00
2:35 AM,59.0,55.4,88,30.43,10.0,ESE,4.6,-,N/A,,Partly Cloudy,120,2013-07-27 09:35:00
2:55 AM,59.0,53.6,82,30.43,10.0,SSE,4.6,-,N/A,,Clear,150,2013-07-27 09:55:00
3:15 AM,59.0,53.6,82,30.42,10.0,SSE,3.5,-,N/A,,Partly Cloudy,160,2013-07-27 10:15:00
3:35 AM,57.2,53.6,88,30.42,10.0,South,3.5,-,N/A,,Partly Cloudy,170,2013-07-27 10:35:00
3:55 AM,57.2,53.6,88,30.43,10.0,SSE,3.5,-,N/A,,Partly Cloudy,160,2013-07-27 10:55:00
4:15 AM,57.2,53.6,88,30.43,10.0,Calm,Calm,-,N/A,,Mostly Cloudy,0,2013-07-27 11:15:00
4:35 AM,57.2,55.4,94,30.43,10.0,Calm,Calm,-,N/A,,Overcast,0,2013-07-27 11:35:00
4:55 AM,57.2,55.4,94,30.42,10.0,SE,4.6,-,N/A,,Overcast,140,2013-07-27 11:55:00
5:15 AM,57.2,55.4,94,30.42,10.0,SSE,5.8,-,N/A,,Mostly Cloudy,160,2013-07-27 12:15:00
5:35 AM,57.2,55.4,94,30.42,10.0,SSE,5.8,-,N/A,,Scattered Clouds,160,2013-07-27 12:35:00
5:55 AM,57.2,53.6,88,30.42,10.0,SSE,4.6,-,N/A,,Clear,160,2013-07-27 12:55:00
6:15 AM,57.2,55.4,94,30.43,10.0,SSE,5.8,-,N/A,,Scattered Clouds,150,2013-07-27 13:15:00
6:35 AM,57.2,55.4,94,30.43,10.0,SSE,3.5,-,N/A,,Mostly Cloudy,160,2013-07-27 13:35:00
6:55 AM,59.0,53.6,82,30.43,10.0,South,4.6,-,N/A,,Scattered Clouds,170,2013-07-27 13:55:00
7:15 AM,60.8,55.4,82,30.43,10.0,SSE,5.8,-,N/A,,Mostly Cloudy,160,2013-07-27 14:15:00
7:35 AM,64.4,53.6,68,30.43,10.0,South,3.5,-,N/A,,Mostly Cloudy,170,2013-07-27 14:35:00
7:55 AM,66.2,51.8,60,30.43,10.0,Calm,Calm,-,N/A,,Mostly Cloudy,0,2013-07-27 14:55:00
8:15 AM,68.0,53.6,60,30.43,10.0,Calm,Calm,-,N/A,,Partly Cloudy,0,2013-07-27 15:15:00
8:35 AM,68.0,53.6,60,30.43,10.0,SSE,3.5,-,N/A,,Clear,150,2013-07-27 15:35:00
8:55 AM,69.8,53.6,56,30.42,10.0,Calm,Calm,-,N/A,,Clear,0,2013-07-27 15:55:00
9:15 AM,71.6,55.4,57,30.42,10.0,WNW,6.9,-,N/A,,Partly Cloudy,300,2013-07-27 16:15:00
9:35 AM,71.6,55.4,57,30.42,10.0,NW,4.6,-,N/A,,Partly Cloudy,310,2013-07-27 16:35:00
9:55 AM,71.6,55.4,57,30.42,10.0,WNW,4.6,-,N/A,,Scattered Clouds,290,2013-07-27 16:55:00
10:15 AM,71.6,55.4,57,30.41,10.0,West,3.5,-,N/A,,Partly Cloudy,260,2013-07-27 17:15:00
10:35 AM,71.6,55.4,57,30.41,10.0,West,8.1,-,N/A,,Mostly Cloudy,280,2013-07-27 17:35:00
10:55 AM,73.4,55.4,53,30.40,10.0,West,8.1,-,N/A,,Scattered Clouds,260,2013-07-27 17:55:00
11:15 AM,73.4,55.4,53,30.40,10.0,West,12.7,19.6,N/A,,Mostly Cloudy,270,2013-07-27 18:15:00
11:35 AM,75.2,55.4,50,30.39,10.0,SW,10.4,-,N/A,,Partly Cloudy,220,2013-07-27 18:35:00
11:55 AM,75.2,55.4,50,30.38,10.0,SW,10.4,-,N/A,,Clear,220,2013-07-27 18:55:00
12:15 PM,73.4,55.4,53,30.37,10.0,WSW,8.1,16.1,N/A,,Scattered Clouds,240,2013-07-27 19:15:00
12:35 PM,75.2,55.4,50,30.37,10.0,SSW,13.8,19.6,N/A,,Scattered Clouds,200,2013-07-27 19:35:00
12:55 PM,77.0,55.4,47,30.36,10.0,SSW,15.0,19.6,N/A,,Clear,200,2013-07-27 19:55:00
1:15 PM,75.2,55.4,50,30.35,10.0,SW,17.3,20.7,N/A,,Partly Cloudy,220,2013-07-27 20:15:00
1:35 PM,73.4,55.4,53,30.35,10.0,SW,10.4,-,N/A,,Mostly Cloudy,230,2013-07-27 20:35:00
1:55 PM,73.4,55.4,53,30.34,10.0,SW,12.7,-,N/A,,Scattered Clouds,220,2013-07-27 20:55:00
2:15 PM,73.4,55.4,53,30.32,10.0,SW,9.2,-,N/A,,Partly Cloudy,230,2013-07-27 21:15:00
2:35 PM,77.0,55.4,47,30.32,10.0,SW,15.0,20.7,N/A,,Partly Cloudy,230,2013-07-27 21:35:00
2:55 PM,75.2,53.6,47,30.32,10.0,SW,10.4,19.6,N/A,,Partly Cloudy,230,2013-07-27 21:55:00
3:15 PM,77.0,51.8,41,30.31,10.0,WSW,11.5,20.7,N/A,,Clear,240,2013-07-27 22:15:00
3:35 PM,75.2,57.2,53,30.31,10.0,South,13.8,19.6,N/A,,Scattered Clouds,180,2013-07-27 22:35:00
3:55 PM,73.4,57.2,57,30.30,10.0,SSE,16.1,-,N/A,,Mostly Cloudy,150,2013-07-27 22:55:00
4:15 PM,69.8,57.2,64,30.31,10.0,NNE,11.5,-,N/A,,Mostly Cloudy,20,2013-07-27 23:15:00
4:35 PM,66.2,57.2,73,30.33,10.0,NNW,8.1,-,N/A,,Overcast,330,2013-07-27 23:35:00
4:55 PM,62.6,59.0,88,30.34,10.0,NNW,11.5,-,N/A,,Mostly Cloudy,330,2013-07-27 23:55:00
5:15 PM,60.8,57.2,88,30.33,10.0,North,6.9,-,N/A,,Mostly Cloudy,10,2013-07-28 00:15:00
5:35 PM,59.0,57.2,94,30.31,1.0,NNE,8.1,-,0.14,,Overcast,20,2013-07-28 00:35:00
5:55 PM,59.0,59.0,100,30.33,5.0,WNW,4.6,-,0.18,,Overcast,290,2013-07-28 00:55:00
6:15 PM,59.0,57.2,94,30.34,5.0,SSE,8.1,-,0.02,,Overcast,160,2013-07-28 01:15:00
6:35 PM,59.0,57.2,94,30.32,5.0,ESE,6.9,-,0.03,,Overcast,120,2013-07-28 01:35:00
6:55 PM,59.0,57.2,94,30.34,9.0,South,5.8,-,0.05,,Overcast,170,2013-07-28 01:55:00
7:15 PM,59.0,57.2,94,30.35,6.0,South,4.6,-,N/A,,Mostly Cloudy,170,2013-07-28 02:15:00
7:35 PM,59.0,57.2,94,30.35,9.0,SSE,4.6,-,0.01,,Mostly Cloudy,150,2013-07-28 02:35:00
7:55 PM,59.0,57.2,94,30.34,5.0,East,4.6,-,0.03,,Mostly Cloudy,90,2013-07-28 02:55:00
8:15 PM,59.0,59.0,100,30.33,10.0,East,10.4,-,N/A,,Overcast,90,2013-07-28 03:15:00
8:35 PM,59.0,57.2,94,30.33,10.0,East,8.1,-,N/A,,Mostly Cloudy,100,2013-07-28 03:35:00
8:55 PM,59.0,57.2,94,30.32,10.0,SSE,5.8,-,0.01,,Mostly Cloudy,160,2013-07-28 03:55:00
9:15 PM,59.0,57.2,94,30.33,5.0,ESE,3.5,-,0.02,,Overcast,110,2013-07-28 04:15:00
9:35 PM,59.0,57.2,94,30.33,9.0,SSE,5.8,-,0.03,,Overcast,160,2013-07-28 04:35:00
9:55 PM,59.0,57.2,94,30.34,10.0,SSW,8.1,-,0.03,,Scattered Clouds,200,2013-07-28 04:55:00
10:15 PM,59.0,57.2,94,30.32,10.0,South,5.8,-,N/A,,Scattered Clouds,180,2013-07-28 05:15:00
10:35 PM,59.0,57.2,94,30.31,10.0,SSE,6.9,-,N/A,,Clear,150,2013-07-28 05:35:00
10:55 PM,59.0,57.2,94,30.30,10.0,Calm,Calm,-,N/A,,Scattered Clouds,0,2013-07-28 05:55:00
11:15 PM,59.0,57.2,94,30.30,10.0,SE,3.5,-,N/A,,Partly Cloudy,130,2013-07-28 06:15:00
11:35 PM,57.2,55.4,94,30.29,10.0,SSE,4.6,-,N/A,,Clear,160,2013-07-28 06:35:00
11:55 PM,57.2,55.4,94,30.29,10.0,SSE,6.9,-,N/A,,Clear,150,2013-07-28 06:55:00